• In Hungary
  • List of Countries
  • For 7 days
  • Water Temperature
  • Satellite Maps
  • Weather Map
  • News
  • Weather Widgets
  • user-avatar
    Login

    Hourly Weather Marki

    Today, 20 September, Thursday

    Time Temperature Precipitation Wind Pressure Humidity
    00:00 +19°C° 0 mm 2 mps 756 mmHg 69%
    01:00 +19°C° 0 mm 2 mps 756 mmHg 71%
    02:00 +18°C° 0 mm 2 mps 756 mmHg 73%
    03:00 +18°C° 0 mm 2 mps 756 mmHg 74%
    04:00 +19°C° 0 mm 1 mps 756 mmHg 76%
    05:00 +19°C° 0 mm 2 mps 756 mmHg 74%
    06:00 +19°C° 0 mm 2 mps 756 mmHg 72%
    07:00 +20°C° 0 mm 2 mps 756 mmHg 70%
    08:00 +23°C° 0 mm 2 mps 756 mmHg 63%
    09:00 +25°C° 0 mm 2 mps 756 mmHg 57%
    10:00 +27°C° 0 mm 2 mps 756 mmHg 50%
    11:00 +28°C° 0 mm 2 mps 756 mmHg 47%
    12:00 +29°C° 0 mm 2 mps 756 mmHg 44%
    13:00 +30°C° 0 mm 3 mps 756 mmHg 41%
    14:00 +30°C° 0 mm 2 mps 755 mmHg 42%
    15:00 +30°C° 0 mm 2 mps 755 mmHg 43%
    16:00 +30°C° 0 mm 2 mps 755 mmHg 44%
    17:00 +28°C° 0 mm 2 mps 755 mmHg 49%
    18:00 +26°C° 0 mm 2 mps 755 mmHg 53%
    19:00 +24°C° 0 mm 2 mps 755 mmHg 58%
    20:00 +23°C° 0 mm 2 mps 755 mmHg 60%
    21:00 +23°C° 0 mm 2 mps 755 mmHg 62%
    22:00 +21°C° 0 mm 2 mps 755 mmHg 63%
    23:00 +21°C° 0 mm 2 mps 755 mmHg 64%

    Tomorrow, 21 September, Friday

    Time Temperature Precipitation Wind Pressure Humidity
    00:00 +20°C° 0 mm 2 mps 755 mmHg 65%
    01:00 +20°C° 0 mm 2 mps 755 mmHg 66%
    02:00 +19°C° 0 mm 2 mps 755 mmHg 66%
    03:00 +19°C° 0 mm 3 mps 755 mmHg 66%
    04:00 +18°C° 0 mm 3 mps 754 mmHg 66%
    05:00 +19°C° 0 mm 3 mps 754 mmHg 64%
    06:00 +19°C° 0 mm 3 mps 754 mmHg 62%
    07:00 +20°C° 0 mm 3 mps 754 mmHg 59%
    08:00 +22°C° 0 mm 4 mps 754 mmHg 54%
    09:00 +25°C° 0 mm 4 mps 753 mmHg 49%
    10:00 +27°C° 0 mm 5 mps 753 mmHg 43%
    11:00 +28°C° 0 mm 5 mps 753 mmHg 41%
    12:00 +28°C° 0 mm 5 mps 752 mmHg 38%
    13:00 +29°C° 0 mm 6 mps 751 mmHg 35%
    14:00 +29°C° 0 mm 5 mps 751 mmHg 37%
    15:00 +28°C° 0 mm 5 mps 750 mmHg 39%
    16:00 +28°C° 0 mm 5 mps 749 mmHg 41%
    17:00 +27°C° 0 mm 5 mps 749 mmHg 45%
    18:00 +25°C° 0 mm 5 mps 749 mmHg 49%
    19:00 +23°C° 0 mm 5 mps 748 mmHg 53%
    20:00 +23°C° 0 mm 5 mps 748 mmHg 53%
    21:00 +22°C° 0 mm 6 mps 748 mmHg 52%
    22:00 +22°C° 0 mm 6 mps 748 mmHg 52%
    23:00 +21°C° 0.1 mm 6 mps 749 mmHg 59%

    Day after tomorrow, 22 September, Saturday

    Time Temperature Precipitation Wind Pressure Humidity
    00:00 +18°C° 0.1 mm 7 mps 749 mmHg 66%
    01:00 +17°C° 0.1 mm 7 mps 750 mmHg 72%
    02:00 +16°C° 0.2 mm 6 mps 751 mmHg 72%
    03:00 +15°C° 0.2 mm 5 mps 752 mmHg 71%
    04:00 +14°C° 0.2 mm 5 mps 753 mmHg 70%
    05:00 +14°C° 0 mm 4 mps 753 mmHg 67%
    06:00 +13°C° 0 mm 4 mps 754 mmHg 64%
    07:00 +13°C° 0 mm 4 mps 755 mmHg 61%
    08:00 +14°C° 0 mm 5 mps 755 mmHg 58%
    09:00 +14°C° 0 mm 5 mps 755 mmHg 55%
    10:00 +14°C° 0 mm 6 mps 755 mmHg 52%
    11:00 +15°C° 0 mm 6 mps 755 mmHg 49%
    12:00 +16°C° 0 mm 6 mps 755 mmHg 46%
    13:00 +17°C° 0 mm 6 mps 755 mmHg 42%
    14:00 +17°C° 0 mm 6 mps 755 mmHg 43%
    15:00 +17°C° 0 mm 6 mps 755 mmHg 43%
    16:00 +17°C° 0 mm 5 mps 754 mmHg 43%
    17:00 +17°C° 0 mm 4 mps 755 mmHg 45%
    18:00 +15°C° 0 mm 4 mps 755 mmHg 47%
    19:00 +14°C° 0 mm 3 mps 755 mmHg 49%
    20:00 +14°C° 0 mm 3 mps 755 mmHg 51%
    21:00 +13°C° 0 mm 3 mps 755 mmHg 52%
    22:00 +13°C° 0 mm 3 mps 755 mmHg 53%
    23:00 +12°C° 0 mm 3 mps 755 mmHg 56%

    23 September, Sunday

    Time Temperature Precipitation Wind Pressure Humidity
    00:00 +12°C° 0 mm 4 mps 755 mmHg 58%
    01:00 +11°C° 0 mm 4 mps 755 mmHg 61%
    02:00 +11°C° 0 mm 4 mps 755 mmHg 62%
    03:00 +10°C° 0 mm 4 mps 755 mmHg 63%
    04:00 +10°C° 0 mm 3 mps 755 mmHg 63%
    05:00 +10°C° 0 mm 4 mps 755 mmHg 62%
    06:00 +11°C° 0 mm 4 mps 755 mmHg 61%
    07:00 +11°C° 0 mm 4 mps 755 mmHg 60%
    08:00 +13°C° 0 mm 5 mps 755 mmHg 55%
    09:00 +14°C° 0 mm 5 mps 755 mmHg 50%
    10:00 +16°C° 0 mm 6 mps 754 mmHg 46%
    11:00 +16°C° 0 mm 6 mps 754 mmHg 44%
    12:00 +17°C° 0 mm 5 mps 753 mmHg 43%
    13:00 +17°C° 0 mm 5 mps 753 mmHg 42%
    14:00 +17°C° 0 mm 5 mps 752 mmHg 44%
    15:00 +16°C° 0 mm 5 mps 751 mmHg 47%
    16:00 +17°C° 0 mm 4 mps 750 mmHg 50%
    17:00 +15°C° 0.9 mm 4 mps 749 mmHg 60%
    18:00 +13°C° 0.9 mm 4 mps 748 mmHg 70%
    19:00 +12°C° 0.9 mm 4 mps 747 mmHg 81%
    20:00 +13°C° 2.2 mm 5 mps 745 mmHg 83%
    21:00 +13°C° 2.2 mm 6 mps 744 mmHg 86%
    22:00 +12°C° 2.2 mm 7 mps 742 mmHg 88%
    23:00 +14°C° 2.4 mm 7 mps 740 mmHg 86%

    24 September, Monday

    Time Temperature Precipitation Wind Pressure Humidity
    00:00 +15°C° 2.4 mm 8 mps 739 mmHg 84%
    01:00 +17°C° 2.4 mm 9 mps 737 mmHg 82%
    02:00 +17°C° 0.6 mm 9 mps 736 mmHg 82%
    03:00 +17°C° 0.6 mm 10 mps 735 mmHg 82%
    04:00 +17°C° 0.6 mm 10 mps 734 mmHg 82%
    05:00 +14°C° 0.3 mm 11 mps 735 mmHg 81%
    06:00 +12°C° 0.3 mm 13 mps 737 mmHg 79%
    07:00 +9°C° 0.3 mm 14 mps 738 mmHg 78%
    08:00 +9°C° 0.2 mm 14 mps 740 mmHg 77%
    09:00 +9°C° 0.2 mm 13 mps 742 mmHg 76%
    10:00 +9°C° 0.2 mm 13 mps 744 mmHg 75%
    11:00 +9°C° 0.2 mm 12 mps 746 mmHg 73%
    12:00 +11°C° 0.2 mm 11 mps 747 mmHg 70%
    13:00 +11°C° 0.2 mm 10 mps 749 mmHg 68%
    14:00 +11°C° 0.5 mm 10 mps 750 mmHg 69%
    15:00 +11°C° 0.5 mm 9 mps 751 mmHg 70%
    16:00 +10°C° 0.5 mm 8 mps 752 mmHg 71%
    17:00 +9°C° 0 mm 7 mps 753 mmHg 72%
    18:00 +8°C° 0 mm 6 mps 754 mmHg 73%
    19:00 +8°C° 0 mm 5 mps 755 mmHg 74%
    20:00 +7°C° 0 mm 5 mps 756 mmHg 73%
    21:00 +7°C° 0 mm 5 mps 756 mmHg 72%
    22:00 +6°C° 0 mm 5 mps 757 mmHg 70%
    23:00 +6°C° 0 mm 5 mps 757 mmHg 71%

    25 September, Tuesday

    Time Temperature Precipitation Wind Pressure Humidity
    00:00 +6°C° 0 mm 5 mps 758 mmHg 71%
    01:00 +5°C° 0 mm 6 mps 758 mmHg 71%
    02:00 +6°C° 0 mm 5 mps 758 mmHg 73%
    03:00 +6°C° 0 mm 5 mps 758 mmHg 76%
    04:00 +6°C° 0 mm 5 mps 759 mmHg 78%
    05:00 +6°C° 0 mm 5 mps 759 mmHg 77%
    06:00 +5°C° 0 mm 6 mps 759 mmHg 76%
    07:00 +7°C° 0 mm 6 mps 759 mmHg 75%
    08:00 +8°C° 0 mm 6 mps 759 mmHg 69%
    09:00 +9°C° 0 mm 6 mps 759 mmHg 63%
    10:00 +11°C° 0 mm 7 mps 760 mmHg 58%
    11:00 +11°C° 0 mm 7 mps 759 mmHg 56%
    12:00 +12°C° 0 mm 7 mps 759 mmHg 55%
    13:00 +12°C° 0 mm 7 mps 759 mmHg 54%
    14:00 +12°C° 0.1 mm 7 mps 759 mmHg 57%
    15:00 +11°C° 0.1 mm 6 mps 758 mmHg 60%
    16:00 +11°C° 0.1 mm 6 mps 758 mmHg 63%
    17:00 +10°C° 0.1 mm 5 mps 758 mmHg 69%
    18:00 +9°C° 0.1 mm 5 mps 759 mmHg 76%
    19:00 +8°C° 0.1 mm 4 mps 759 mmHg 83%
    20:00 +8°C° 0 mm 4 mps 759 mmHg 85%
    21:00 +7°C° 0 mm 4 mps 760 mmHg 87%
    22:00 +7°C° 0 mm 3 mps 760 mmHg 89%
    23:00 +7°C° 0 mm 3 mps 761 mmHg 90%
    Show more